Weather History for Hibbing, MN

Change the Weather History Date:

Thursday, January 24, 2013

  Actual Average Record
Temperature  
Mean Temperature -12 °F -  
Max Temperature 3 °F 16 °F 44 °F (1981)
Min Temperature -27 °F -2 °F -31 °F (1987)
Degree Days  
Heating Degree Days 77    
Moisture  
Dew Point -17 °F    
Average Humidity 68    
Maximum Humidity 78    
Minimum Humidity 51    
Precipitation  
Precipitation 0.00 in - - ()
Sea Level Pressure  
Sea Level Pressure 30.47 in    
Wind  
Wind Speed 4 mph (SE)    
Max Wind Speed 13 mph    
Max Gust Speed -    
Visibility 7 miles    
Events Snow    
Averages and records for this station are not official NWS values.
T = Trace of Precipitation, MM = Missing Value Source: NWS Daily Summary

Daily Weather History Graph

Daily Weather History Graph

Search for Another Location

Airport:

Trip Planner

Search our weather history database for the weather conditions in past years. The results will help you decide how hot, cold, wet, or windy it might be!

Date:

Astronomy

Jan. 24, 2013 Rise Set
Actual Time 7:46 AM CST 5:01 PM CST
Civil Twilight 7:12 AM CST 5:35 PM CST
Nautical Twilight 6:35 AM CST 6:12 PM CST
Astronomical Twilight 5:58 AM CST 6:48 PM CST
Moon 3:01 PM CST (1/24) 5:46 AM CST (1/24)
Length of Visible Light 10h 22m
Length of Day
9h 15m
Waxing Gibbous, 94% of the Moon is Illuminated
Jan 24
Waxing Gibbous
Jan 26
Full
Feb 3
Last Quarter
Feb 10
New
Feb 17
First Quarter

Hourly Weather History & Observations

Time (CST) Temp. Windchill Dew Point Humidity Pressure Visibility Wind Dir Wind Speed Gust Speed Precip Events Conditions
12:53 AM -18.0 °F -30.9 °F -25.1 °F 70% 30.70 in 10.0 mi NNW 4.6 mph - N/A   Clear
1:53 AM -23.1 °F - -29.9 °F 70% 30.72 in 10.0 mi Calm Calm - N/A   Clear
2:53 AM -25.1 °F - -31.0 °F 74% 30.73 in 10.0 mi Calm Calm - N/A   Partly Cloudy
3:13 AM -25.6 °F - -32.8 °F 69% 30.57 in 10.0 mi Calm Calm - N/A   Mostly Cloudy
3:53 AM -27.0 °F -38.7 °F -33.0 °F 73% 30.73 in 4.0 mi NNW 3.5 mph - N/A   Haze
4:08 AM -27.4 °F - -32.8 °F 75% 30.56 in 7.0 mi Calm Calm - N/A   Scattered Clouds
4:53 AM -27.9 °F - -35.0 °F 69% 30.73 in 10.0 mi Calm Calm - N/A   Clear
5:53 AM -27.0 °F - -35.0 °F 66% 30.73 in 10.0 mi Calm Calm - N/A   Clear
6:53 AM -27.0 °F - -33.0 °F 73% 30.75 in 10.0 mi Calm Calm - N/A   Clear
7:53 AM -26.0 °F - -32.1 °F 73% 30.73 in 10.0 mi Calm Calm - N/A   Clear
8:53 AM -24.0 °F - -31.0 °F 70% 30.72 in 9.0 mi Calm Calm - N/A   Clear
9:53 AM -17.0 °F -29.7 °F -24.0 °F 70% 30.71 in 10.0 mi SE 4.6 mph - N/A   Clear
10:53 AM -13.0 °F - -22.0 °F 64% 30.69 in 10.0 mi Calm Calm - N/A   Clear
11:53 AM -9.9 °F -23.4 °F -20.9 °F 59% 30.66 in 10.0 mi SE 5.8 mph - N/A   Clear
12:53 PM -6.0 °F -18.6 °F -18.9 °F 54% 30.61 in 10.0 mi SSE 5.8 mph - N/A   Partly Cloudy
1:53 PM -4.0 °F -17.8 °F -18.0 °F 51% 30.58 in 10.0 mi South 6.9 mph - N/A   Overcast
2:53 PM -2.9 °F -16.5 °F -16.1 °F 54% 30.55 in 10.0 mi SSE 6.9 mph - N/A   Overcast
3:53 PM -0.9 °F -14.1 °F -14.1 °F 54% 30.49 in 10.0 mi SSE 6.9 mph - N/A   Overcast
4:53 PM -0.0 °F -13.0 °F -13.0 °F 54% 30.47 in 10.0 mi SSE 6.9 mph - N/A   Overcast
5:12 PM -0.4 °F -13.4 °F -11.2 °F 60% 30.29 in 2.5 mi SSE 6.9 mph - 0.00 in Snow Light Snow
5:23 PM -0.4 °F -12.0 °F -9.4 °F 66% 30.29 in 4.0 mi SSE 5.8 mph - 0.00 in Snow Light Snow
5:38 PM -0.4 °F -15.7 °F -9.4 °F 66% 30.27 in 2.5 mi SE 9.2 mph - 0.00 in Snow Light Snow
5:49 PM -0.4 °F -13.4 °F -7.6 °F 72% 30.28 in 1.5 mi SSE 6.9 mph - 0.00 in Snow Light Snow
5:53 PM -0.0 °F -11.6 °F -8.0 °F 69% 30.43 in 1.2 mi SSE 5.8 mph - 0.00 in Snow Light Snow
6:09 PM -0.4 °F -13.4 °F -7.6 °F 72% 30.27 in 1.0 mi SE 6.9 mph - 0.00 in Snow Light Snow
6:36 PM -0.4 °F -16.7 °F -7.6 °F 72% 30.26 in 1.8 mi SE 10.4 mph - 0.00 in Snow Light Snow
6:40 PM -0.4 °F -15.7 °F -7.6 °F 72% 30.26 in 3.0 mi SE 9.2 mph - 0.00 in Snow Light Snow
6:53 PM -0.0 °F -15.3 °F -7.1 °F 72% 30.41 in 10.0 mi SE 9.2 mph - 0.00 in   Overcast
7:39 PM -0.4 °F -18.4 °F -5.8 °F 78% 30.20 in 2.0 mi SE 12.7 mph - 0.00 in Snow Light Snow
7:53 PM -0.0 °F -18.0 °F -6.0 °F 76% 30.34 in 1.5 mi SE 12.7 mph - 0.00 in Snow Light Snow
8:07 PM 1.4 °F -16.1 °F -5.8 °F 72% 30.18 in 3.0 mi SE 12.7 mph - 0.00 in Snow Light Snow
8:14 PM 1.4 °F -15.3 °F -5.8 °F 72% 30.17 in 6.0 mi SE 11.5 mph - 0.00 in Snow Light Snow
8:53 PM 1.9 °F -11.8 °F -6.0 °F 69% 30.32 in 10.0 mi SSE 8.1 mph - 0.00 in   Overcast
9:53 PM 1.9 °F -12.9 °F -5.1 °F 72% 30.26 in 10.0 mi SSE 9.2 mph - 0.00 in   Overcast
10:53 PM 3.0 °F -12.5 °F -4.0 °F 73% 30.22 in 9.0 mi SSE 10.4 mph - 0.00 in   Overcast
11:53 PM 3.9 °F -8.2 °F -4.0 °F 70% 30.20 in 9.0 mi SSE 6.9 mph - 0.00 in Snow Light Snow